This is the latest recevied weather packets stored in our database for station/object KJ5JYX. If no packets are shown the sender has not sent any weather packets the latest 10 day(s).
| Time | Temp. | Humidity | Pressure | Rain* | Wind** | Luminosity | Snow |
|---|---|---|---|---|---|---|---|
| 1777987096 | 22.22° C | 89% | 1008.7 hPa | 0 mm | - | 84 W/m² | - |
| 1777986794 | 22.22° C | 89% | 1008.6 hPa | 0 mm | - | 68 W/m² | - |
| 1777986491 | 22.22° C | 89% | 1008.8 hPa | 0 mm | - | 54 W/m² | - |
| 1777986189 | 22.22° C | 89% | 1008.7 hPa | 0 mm | - | 36 W/m² | - |
| 1777985886 | 22.22° C | 89% | 1008.5 hPa | 0 mm | - | 22 W/m² | - |
| 1777985584 | 22.22° C | 89% | 1008.6 hPa | 0 mm | - | 19 W/m² | - |
| 1777985280 | 22.22° C | 89% | 1008.6 hPa | 0 mm | - | 16 W/m² | - |
| 1777984977 | 22.22° C | 89% | 1008.6 hPa | 0 mm | - | 14 W/m² | - |
| 1777984672 | 22.22° C | 89% | 1008.4 hPa | 0 mm | - | 15 W/m² | - |
| 1777984369 | 22.22° C | 89% | 1008.4 hPa | 0 mm | - | 19 W/m² | - |
| 1777984066 | 22.22° C | 89% | 1008.4 hPa | 0 mm | - | 16 W/m² | - |
| 1777983763 | 22.22° C | 89% | 1008.4 hPa | 0 mm | - | 11 W/m² | - |
| 1777983460 | 22.22° C | 89% | 1008.2 hPa | 0 mm | - | 10 W/m² | - |
| 1777983156 | 22.22° C | 89% | 1008.1 hPa | 0 mm | - | 10 W/m² | - |
| 1777982853 | 22.22° C | 89% | 1007.9 hPa | 0 mm | - | 7 W/m² | - |
| 1777982549 | 22.22° C | 89% | 1007.9 hPa | 0 mm | - | 4 W/m² | - |
| 1777982247 | 22.22° C | 89% | 1007.9 hPa | 0 mm | - | 2 W/m² | - |
| 1777981945 | 22.22° C | 89% | 1007.9 hPa | 0 mm | - | 1 W/m² | - |
| 1777981642 | 22.22° C | 88% | 1007.8 hPa | 0 mm | - | 1 W/m² | - |
| 1777981338 | 22.22° C | 89% | 1007.9 hPa | 0 mm | - | 0 W/m² | - |
| 1777981035 | 22.22° C | 89% | 1007.6 hPa | 0 mm | - | 0 W/m² | - |
| 1777980732 | 22.22° C | 89% | 1007.4 hPa | 0 mm | - | 0 W/m² | - |
| 1777980428 | 22.22° C | 89% | 1007.6 hPa | 0 mm | - | 0 W/m² | - |
| 1777980126 | 22.22° C | 89% | 1007.6 hPa | 0 mm | - | 0 W/m² | - |
| 1777979825 | 22.22° C | 89% | 1007.6 hPa | 0 mm | - | 0 W/m² | - |
* Rain latest hour (hover to see other rain measurements)
** Current wind speed in m/s (hover to see current wind gust speed)